156P/Russell-LINEAR (2014)

Japanese version
Home page
Updated on May 29, 2016

---------------------------------------------------------------------

* Profile

* Pictures

* Orbital Elements

Epoch 2014 Apr. 13.0 TT = JDT 2456760.5
T 2014 Apr. 16.56140 TT                                 MPCW
q   1.5848648            (2000.0)            P               Q
n   0.14466621     Peri.  357.80587     +0.79929657     -0.55796306
a   3.5938338      Node    38.98154     +0.55661043     +0.54741592
e   0.5590044      Incl.   20.77827     +0.22651674     +0.62370909
P   6.81
From 83 observations 1986 Sept. 3-2014 Dec. 24, mean residual 0".5.

* Magnitudes Graph

        m1 = 15.8 + 5 log d + 5.0 log r

---------------------------------------------------------------------

The orbital elements are published on M.P.E.C. 2015-E14.
The magnitudes graphs are made with Comet for Windows.

---------------------------------------------------------------------

Copyright(C) Seiichi Yoshida (comet@aerith.net). All rights reserved.